Saginaw, MI

6:57 PM EDT on April 28, 2017 (GMT -0400)
MBS International

Weather History for KMBS - August, 2013

Change the Weather History Date:

Wednesday, August 28, 2013

  Actual Average Record
Temperature  
Mean Temperature 76 °F 67 °F  
Max Temperature 83 °F 78 °F 88 °F (1999)
Min Temperature 68 °F 57 °F 48 °F (2003)
Degree Days  
Heating Degree Days 0    
Month to date heating degree days 10  
Since 1 June heating degree days 74  
Since 1 July heating degree days 21  
Cooling Degree Days 11    
Month to date cooling degree days 133  
Year to date cooling degree days 577  
Since 1 June cooling degree days 503  
Growing Degree Days 25 (Base 50)    
Moisture  
Dew Point 70 °F    
Average Humidity 81    
Maximum Humidity 100    
Minimum Humidity 62    
Precipitation  
Precipitation 0.00 in 0.12 in 0.53 in (1998)
Month to date precipitation 2.25 2.96  
Year to date precipitation 24.22 20.17  
Snow  
Snow 0.00 in - - ()
Month to date snowfall 0.0  
Since 1 June snowfall 0.0  
Since 1 July snowfall 0.0  
Snow Depth 0.00 in    
Sea Level Pressure  
Sea Level Pressure 29.91 in    
Wind  
Wind Speed 7 mph (NNE)    
Max Wind Speed 16 mph    
Max Gust Speed 26 mph    
Visibility 6 miles    
Events Fog    
T = Trace of Precipitation, MM = Missing Value Source: NWS Daily Summary

Daily Weather History Graph

Daily Weather History Graph

Search for Another Location

Airport or City:

Trip Planner

Search our weather history database for the weather conditions in past years. The results will help you decide how hot, cold, wet, or windy it might be!

Date:

Astronomy

Aug. 28, 2013 Rise Set
Actual Time 6:55 AM EDT 8:18 PM EDT
Civil Twilight 6:26 AM EDT 8:47 PM EDT
Nautical Twilight 5:50 AM EDT 9:23 PM EDT
Astronomical Twilight 5:12 AM EDT 10:01 PM EDT
Moon No Moon Rise 3:00 PM EDT
Length of Visible Light 14h 21m
Length of Day
13h 22m
Waning Gibbous, 47% of the Moon is Illuminated
Aug 28
Waning Gibbous
Sep 5
New
Sep 12
First Quarter
Sep 19
Full
Sep 26
Last Quarter

Hourly Weather History & Observations

Time (EDT) Temp. Heat Index Dew Point Humidity Pressure Visibility Wind Dir Wind Speed Gust Speed Precip Events Conditions
12:01 AM 73.4 °F - 71.6 °F 94% 29.84 in 10.0 mi NE 4.6 mph - N/A   Overcast
12:10 AM 73.4 °F - 71.6 °F 94% 29.84 in 10.0 mi NE 3.5 mph - N/A   Overcast
12:29 AM 73.4 °F - 71.6 °F 94% 29.83 in 8.0 mi Calm Calm - N/A   Mostly Cloudy
12:43 AM 71.6 °F - 69.8 °F 94% 29.83 in 6.0 mi NNE 6.9 mph - N/A   Mostly Cloudy
12:53 AM 73.0 °F - 71.1 °F 93% 29.83 in 4.0 mi NE 4.6 mph - N/A   Mostly Cloudy
1:35 AM 73.4 °F - 71.6 °F 94% 29.83 in 3.0 mi NE 4.6 mph - N/A   Mostly Cloudy
1:44 AM 71.6 °F - 71.6 °F 100% 29.84 in 4.0 mi NE 3.5 mph - N/A   Scattered Clouds
1:51 AM 71.6 °F - 71.6 °F 100% 29.83 in 4.0 mi ENE 3.5 mph - N/A   Mostly Cloudy
1:53 AM 72.0 °F - 71.1 °F 97% 29.82 in 4.0 mi ENE 3.5 mph - N/A   Mostly Cloudy
2:53 AM 73.0 °F - 71.1 °F 93% 29.81 in 5.0 mi NE 3.5 mph - N/A   Overcast
3:50 AM 73.4 °F - 71.6 °F 94% 29.83 in 3.0 mi Calm Calm - N/A   Overcast
3:53 AM 73.0 °F - 71.1 °F 93% 29.83 in 3.0 mi Calm Calm - N/A   Overcast
4:24 AM 73.4 °F - 71.6 °F 94% 29.84 in 3.0 mi North 5.8 mph - N/A   Overcast
4:32 AM 73.4 °F - 71.6 °F 94% 29.84 in 2.5 mi North 4.6 mph - N/A   Overcast
4:43 AM 73.4 °F - 71.6 °F 94% 29.85 in 1.0 mi NNW 4.6 mph - N/A   Overcast
4:51 AM 73.4 °F - 71.6 °F 94% 29.85 in 0.8 mi North 5.8 mph - N/A   Overcast
4:53 AM 73.0 °F - 72.0 °F 96% 29.84 in 0.8 mi North 6.9 mph - N/A   Overcast
5:04 AM 73.4 °F - 71.6 °F 94% 29.85 in 0.8 mi North 9.2 mph - N/A   Overcast
5:13 AM 73.4 °F - 71.6 °F 94% 29.85 in 2.0 mi North 10.4 mph - N/A   Overcast
5:21 AM 73.4 °F - 71.6 °F 94% 29.85 in 4.0 mi North 10.4 mph - N/A   Overcast
5:53 AM 73.0 °F - 71.1 °F 93% 29.84 in 5.0 mi North 8.1 mph - N/A   Overcast
6:53 AM 72.0 °F - 70.0 °F 93% 29.87 in 5.0 mi NNE 9.2 mph - N/A   Overcast
7:53 AM 72.0 °F - 70.0 °F 93% 29.88 in 6.0 mi NNE 12.7 mph - N/A   Overcast
8:53 AM 72.0 °F - 70.0 °F 93% 29.89 in 4.0 mi NNE 9.2 mph - N/A   Overcast
9:53 AM 73.0 °F - 70.0 °F 90% 29.91 in 8.0 mi NE 10.4 mph - N/A   Overcast
10:53 AM 73.9 °F - 70.0 °F 87% 29.92 in 7.0 mi ENE 9.2 mph - N/A   Overcast
11:21 AM 75.2 °F - 69.8 °F 83% 29.94 in 9.0 mi NNE 9.2 mph - N/A   Overcast
11:53 AM 75.9 °F - 70.0 °F 82% 29.94 in 10.0 mi NE 8.1 mph - N/A   Overcast
12:53 PM 79.0 °F - 69.1 °F 72% 29.96 in 10.0 mi NE 13.8 mph - N/A   Scattered Clouds
1:40 PM 80.6 °F 83.9 °F 69.8 °F 70% 29.97 in 10.0 mi NE 13.8 mph - N/A   Mostly Cloudy
1:53 PM 80.1 °F 83.2 °F 70.0 °F 71% 29.96 in 10.0 mi NE 12.7 mph - N/A   Scattered Clouds
2:53 PM 81.0 °F 83.8 °F 68.0 °F 65% 29.97 in 10.0 mi NE 12.7 mph 19.6 mph N/A   Clear
3:53 PM 82.0 °F 84.9 °F 68.0 °F 62% 29.96 in 10.0 mi NE 12.7 mph - N/A   Clear
4:53 PM 82.0 °F 84.9 °F 68.0 °F 62% 29.96 in 10.0 mi ENE 10.4 mph - N/A   Clear
5:53 PM 81.0 °F 83.0 °F 66.0 °F 60% 29.98 in 10.0 mi NNE 10.4 mph - N/A   Clear
6:53 PM 79.0 °F - 66.0 °F 64% 29.99 in 10.0 mi NE 8.1 mph - N/A   Clear
7:53 PM 75.9 °F - 66.9 °F 74% 29.99 in 10.0 mi NE 3.5 mph - N/A   Clear
8:53 PM 71.1 °F - 68.0 °F 90% 30.01 in 10.0 mi NNE 6.9 mph - N/A   Clear
9:53 PM 70.0 °F - 68.0 °F 93% 30.02 in 10.0 mi NNE 3.5 mph - N/A   Clear
10:53 PM 69.1 °F - 66.9 °F 93% 30.04 in 7.0 mi NNE 3.5 mph - N/A   Clear
11:30 PM 68.0 °F - 66.2 °F 94% 30.05 in 4.0 mi Calm Calm - N/A   Scattered Clouds
11:33 PM 68.0 °F - 66.2 °F 94% 30.05 in 2.0 mi Calm Calm - N/A   Mostly Cloudy
11:36 PM 68.0 °F - 66.2 °F 94% 30.05 in 1.0 mi Calm Calm - N/A   Mist
11:44 PM 68.0 °F - 66.2 °F 94% 30.04 in 0.5 mi Calm Calm - N/A Fog Fog
11:53 PM 68.0 °F - 66.9 °F 96% 30.04 in 0.8 mi Calm Calm - N/A   Mist